KUIPER-00317

Last updated on Sun Apr 12 2026 00:02:10 GMT+0000 (Coordinated Universal Time)

1 68600U 26072AD 26101.50002315 .00052078 00000+0 14324-2 0 9990 2 68600 51.8681 139.4750 0008641 131.0496 109.0878 15.36644390 1817
UTC large
Height (km)
Speed (km/s)
/
Latitude / Longitude
Inclination (degrees)
Orbital Period (minutes)
Azimuth
Elevation
Range (km)
Doppler Factor

Next 0 passes for location: London (51.5072 / 0.1276)

Sorry there are no passes over London.
KUIPER-00317